Location: Avebury
(53.1487°N, 106.9774°W)
Time: 14:55:19
(UTC+00:00)

Envisat - Pass Details

Date: 26 January 2022
Orbit: 764 x 765 km, 98.2° (Epoch: 22 May)

Event Time Altitude Azimuth Distance (km) Brightness Sun altitude
Rises 12:35:29 0° 13° (NNE) 3,245 6.4 -21.5°
Reaches altitude 10° 12:37:49 10° 11° (N) 2,314 5.6 -21.2°
Maximum altitude 12:42:52 69° 290° (WNW) 824 2.9 -20.4°
Drops below altitude 10° 12:47:54 10° 208° (SSW) 2,299 5.2 -19.6°
Sets 12:50:12 0° 205° (SSW) 3,221 6.0 -19.3°
